CZ-6A DEB

Satellite information

Favourite Embed

Satellite Type and Status

DEBRISIN ORBIT

Key statistics

Satellite CZ-6A DEB at a glance.

Uptime

1072

Days in orbit

Revolutions

≈ 14.1

Per day

Orbit

SSO

Sun Synchronous Orbit

Inclination

98.8

Latest

Satellite identification and parameters

Extended collection of information and parameters for CZ-6A DEB.

Object identification

Identified? True

Debris? True

Object name: CZ-6A DEB

International designator: 2022-151ZC

Object number (NORAD): 55554

Object ID (CCSDS): 55554

Country: PEOPLES REPUBLIC OF CHINA (PRC)

Current information (Y/N): Y

RCS size: SMALL

Orbital parameters

Period: 101.826 minutes

Inclination: 98.807 deg

SMA: 7223.261 km

Apoapsis: 886.588 km

Periapsis: 803.664 km

RAAN: 282.6033 deg

Eccentricy: 0.00574006

Argument of periapsis: 303.7793 deg

Mean anomaly: 55.792 deg

Mean motion: 14.14173889 rev/day

Mean motion (dot): 0.00004171 rev/day2

B* drag term: 0.0021758995 1/REarth

Two-line elements (TLE)

Creation date: Oct. 16, 2025, 2:37 a.m.

Reference frame: TEME

Reference center: EARTH

Epoch: Oct. 15, 2025, 6:52 p.m. UTC

TLE line 0: 0 CZ-6A DEB

TLE line 1: 1 55554U 22151ZC 25288.78674502 .00004171 00000-0 21759-2 0 9998

TLE line 2: 2 55554 98.8070 282.6033 0057401 303.7793 55.7920 14.14173889150292

Live tracking on map

Real-time ground track for satellite CZ-6A DEB.

In-orbit conjunctions

A list of the most updated potential collisions computed for object CZ-6A DEB.

Target Orbit TCA Probability of collision Miss distance Type
COSMOS 1275 DEB LEO 2025-04-22 16:05:30 0.0001487281 18.0 (m) DEBRIS
CZ-6A DEB LEO 2025-02-19 04:37:05 0.000314508 462.0 (m) DEBRIS
NOAA 16 DEB SSO 2024-11-15 01:05:15 0.0004753636 168.0 (m) DEBRIS
FENGYUN 1C DEB SSO 2024-09-17 22:12:57 0.0001068161 225.0 (m) DEBRIS

Associated space launch

Chinese satellite reported for atmospheric/ocean/environmental/spatial parameter research purposes, details TBD.

CZ-6A DEB was lifted into orbit during the mission ‘Long March 6A | Yunhai 3’, on board a Long March 6A space rocket.

The launch took place on Nov. 11, 2022, 10:52 p.m. from Launch Complex 9A.

For more information about the launch, click the button.

Launch to space Long March 6A | Yunhai 3
Long March 6A | Yunhai 3

Agency: N/A

Status: Launch Successful

Launch date: Nov. 11, 2022, 10:52 p.m. UTC

Rocket: Long March 6A

Launch pad: Launch Complex 9A

Location: Taiyuan Satellite Launch Center, People's Republic of China

...

Latest news about this satellite

There are no fresh news available about this satellite. Check back as we update our databases every day.


Newsletter sign-up

Weekly statistics, charts and insights to help you stay on top of the space industry.